Regional Weather Roundup
Issued by NWS Upton, NY

Current Version | Previous Version | Text Only | Print | Product List | Glossary On
Versions: 1 2 3 4 5 6 7 8 9 10 11 12 13 14 15 16 17 18 19 20 21 22 23 24 25 26 27 28 29 30 31 32 33 34 35 36 37 38 39 40 41 42 43 44 45 46 47 48 49 50
000
ASUS41 KOKX 041508
RWROKX

REGIONAL WEATHER ROUNDUP
NATIONAL WEATHER SERVICE NEW YORK NY
1100 AM EDT MON MAY 04 2015

NOTE: "FAIR" INDICATES FEW OR NO CLOUDS BELOW 12,000 FEET WITH NO
SIGNIFICANT WEATHER AND/OR OBSTRUCTIONS TO VISIBILITY.

NYZ071-072-176-178-NJZ106-104-041600-
NEW YORK CITY METRO AREA


CITY           SKY/WX    TMP DP  RH WIND       PRES   REMARKS
CENTRAL PARK   MOSUNNY   78  44  29 VRB5      30.23F
LAGUARDIA APRT MOSUNNY   74  48  39 NE5       30.21S
KENNEDY INTL   MOSUNNY   67  49  52 S7        30.23S
NEWARK/LIBERTY MOSUNNY   79  45  29 SW7       30.21S
BRNX BOT. GARD   N/A     75  48  38 S7        30.23R
TETERBORO      SUNNY     75  46  35 S7        30.20S
$$

NYZ177-179-078>081-041600-
LONG ISLAND NEW YORK

CITY           SKY/WX    TMP DP  RH WIND       PRES   REMARKS
FARMINGDALE    SUNNY     70  52  52 VRB7      30.23R
ISLIP          MOSUNNY   71  51  49 S7        30.22R
SHIRLEY        SUNNY     69  51  52 S7        30.24R
WESTHAMPTON    SUNNY     66  48  52 SW8       30.25R
MONTAUK POINT    N/A     66  51  58 VRB5      30.25R
$$

NYZ052-065-067-041600-
HUDSON VALLEY

CITY           SKY/WX    TMP DP  RH WIND       PRES   REMARKS
WHITE PLAINS   SUNNY     72  52  49 VRB6      30.21S
NEWBURGH       MOSUNNY   73  48  40 CALM      30.21S
MONTGOMERY     SUNNY     78  48  34 SW7       30.18F
POUGHKEEPSIE   SUNNY     77  46  33 W6        30.17F
ALBANY         MOSUNNY   72  43  35 S7        30.15F
$$

NJZ001-105-106-008-010-013-015-019>022-104-041600-
NEW JERSEY

CITY           SKY/WX    TMP DP  RH WIND       PRES   REMARKS
NEWARK/LIBERTY MOSUNNY   79  45  29 SW7       30.21S
TETERBORO      SUNNY     75  46  35 S7        30.20S
CALDWELL       SUNNY     78  45  30 VRB5      30.20F
MORRISTOWN     SUNNY     79  48  34 S5        30.21S
SOMERVILLE     SUNNY     77  51  40 SE5       30.20R
SUSSEX         SUNNY     77  47  34 S6        30.20S
ANDOVER          N/A     77  43  29 VRB6      30.21S
TRENTON        SUNNY     77  48  35 SW7       30.22S
MILLVILLE      SUNNY     78  48  34 W6        30.25R
ATLANTIC CITY  SUNNY     80  42  25 W8        30.24S
WRIGHTSTOWN    NOT AVBL
TOMS RIVER     SUNNY     82  41  23 SW5G18    30.21S
BELMAR         SUNNY     81  45  28 SW7       30.23S
$$

PAZ047>061-062-071-041600-
EASTERN PENNSYLVANIA

CITY           SKY/WX    TMP DP  RH WIND       PRES   REMARKS
PHILADELPHIA   MOSUNNY   76  47  35 SW7       30.24R
ALLENTOWN      SUNNY     78  47  33 S8        30.21S
SCRANTON       SUNNY     78  41  26 SW8       30.19F
$$

CTZ002-004>006-009-010-012-RIZ004-006-007-MAZ004-011-015-041600-
SOUTHERN NEW ENGLAND
 IN CT

CITY           SKY/WX    TMP DP  RH WIND       PRES   REMARKS
BRADLEY INTL   MOSUNNY   73  47  39 S7        30.18F
HARTFORD       SUNNY     71 N/A N/A SE10      30.19F
DANBURY        SUNNY     75  44  33 NW5       30.21F
WTRBRY/OXFORD  SUNNY     73  46  38 SW5       30.23R
BRIDGEPORT     SUNNY     64  47  53 SW7       30.22F
MERIDEN        SUNNY     73  46  38 SE7       30.21S
NEW HAVEN      MOSUNNY   61  50  67 S5        30.22S
CHESTER        FAIR      73  48  40 SE6       30.23S
GROTON         SUNNY     56  50  80 S7        30.23S
WILLIMANTIC    SUNNY     71  48  43 S6        30.21F

 IN RI

CITY           SKY/WX    TMP DP  RH WIND       PRES   REMARKS
PROVIDENCE     MOSUNNY   61  50  67 SE9       30.22S
BLOCK ISLAND   SUNNY     61  48  63 SW14      30.26R
WESTERLY       SUNNY     63  47  55 SW8       30.24R

 IN MA

CITY           SKY/WX    TMP DP  RH WIND       PRES   REMARKS
BOSTON         MOSUNNY   73  47  39 S9        30.19S
WORCESTER      SUNNY     76  37  24 SW9       30.21S
WESTFIELD      SUNNY     72  45  37 VRB6      30.18F
PROVINCETOWN   SUNNY     64  52  63 SW14      30.22S
NANTUCKET      SUNNY     58  49  72 S12       30.26S
$$

ANZ330-335-338-340-345-350-353-355-041600-
COASTAL MARINE OBSERVATIONS


STATION/POSITION TIME  SKY/WX   TEMP    WIND        PRES    VSBY  WAVE
                                AIR SEA DIR/SP/G                  HT/PER
                 (UTC)          (F)     (DEG/KT/KT) (MB)    (MI)  (FT/S)
NY HARB ENTRANCE 1450            54 52  180/  8/ 10 1023.4          3/ 8
4S FIRE IS       1403               49                N/A           4/ 8
20S FIRE ISLAND  1450            51 48  190/  8/ 10 1024.0          3/ 8
GREAT SOUTH BAY  1400            55 58  230/  6/  8   N/A
23SW MTP         1450            49 46  220/  8/  8 1024.2          3/ 8
HUDSON CANYON    NOT AVBL
EXECUTION ROCKS  NOT AVBL
WESTERN LI SOUND NOT AVBL
CENTRAL LI SOUND NOT AVBL
EASTERN LI SOUND 1415            55        CALM       N/A
ROBBINS REEF     1400            60     170/  6/  6 1022.1
$$


>>>>>>>>>>>>>>>>>>>>>>>>>>>> KEY <<<<<<<<<<<<<<<<<<<<<<<<<<<
>                                                          <
>     SKY/WX - SKY CONDITION/PRESENT WEATHER               <
>     TMP    - TEMPERATURE IN FAHRENHEIT                   <
>     DP     - DEWPOINT IN FAHRENHEIT                      <
>     RH     - RELATIVE HUMIDITY IN PERCENT                <
>     WIND   - DIRECTION AND SPEED IN MPH                  <
>     PRES   - MEAN SEA LEVEL PRESSURE IN INCHES OF HG     <
>     WCI    - WIND CHILL INDEX                            <
>     VSB    - VISIBILITY IN MILES                         <
>     HX     - HEAT INDEX                                  <
>     TC     - TEMPERATURE IN CELSIUS                      <
>     VRB    - VARIABLE WIND DIRECTION                     <
>                                                          <
>>>>>>>>>>>>>>>>>>>>>>>>>>>> KEY <<<<<<<<<<<<<<<<<<<<<<<<<<<





USA.gov is the U.S. government's official web portal to all federal, state and local government web resources and services.